#datetime,building,power
2022-06-11T00:00:00,mfh,23.90
2022-06-11T00:01:00,mfh,24.42
2022-06-11T00:02:00,mfh,24.01
2022-06-11T00:03:00,mfh,23.26
2022-06-11T00:04:00,mfh,23.19
2022-06-11T00:05:00,mfh,23.19
2022-06-11T00:06:00,mfh,23.20
2022-06-11T00:07:00,mfh,23.77
2022-06-11T00:08:00,mfh,23.92
2022-06-11T00:09:00,mfh,23.96
2022-06-11T00:10:00,mfh,23.93
2022-06-11T00:11:00,mfh,23.44
2022-06-11T00:12:00,mfh,23.51
2022-06-11T00:13:00,mfh,23.47
2022-06-11T00:14:00,mfh,23.49
2022-06-11T00:15:00,mfh,23.55
2022-06-11T00:16:00,mfh,24.18
2022-06-11T00:17:00,mfh,24.10
2022-06-11T00:18:00,mfh,24.03
2022-06-11T00:19:00,mfh,23.96
2022-06-11T00:20:00,mfh,23.26
2022-06-11T00:21:00,mfh,23.26
2022-06-11T00:22:00,mfh,23.25
2022-06-11T00:23:00,mfh,23.18
2022-06-11T00:24:00,mfh,23.73
2022-06-11T00:25:00,mfh,24.24
2022-06-11T00:26:00,mfh,23.73
2022-06-11T00:27:00,mfh,23.78
2022-06-11T00:28:00,mfh,23.07
2022-06-11T00:29:00,mfh,23.07
2022-06-11T00:30:00,mfh,23.07
2022-06-11T00:31:00,mfh,23.08
2022-06-11T00:32:00,mfh,23.76
2022-06-11T00:33:00,mfh,24.02
2022-06-11T00:34:00,mfh,24.00
2022-06-11T00:35:00,mfh,23.93
2022-06-11T00:36:00,mfh,23.27
2022-06-11T00:37:00,mfh,23.25
2022-06-11T00:38:00,mfh,23.20
2022-06-11T00:39:00,mfh,23.98
2022-06-11T00:40:00,mfh,25.24
2022-06-11T00:41:00,mfh,25.21
2022-06-11T00:42:00,mfh,23.95
2022-06-11T00:43:00,mfh,23.07
2022-06-11T00:44:00,mfh,23.28
2022-06-11T00:45:00,mfh,23.89
2022-06-11T00:46:00,mfh,23.82
2022-06-11T00:47:00,mfh,23.88
2022-06-11T00:48:00,mfh,24.52
2022-06-11T00:49:00,mfh,24.20
2022-06-11T00:50:00,mfh,23.20
2022-06-11T00:51:00,mfh,23.18
2022-06-11T00:52:00,mfh,24.21
2022-06-11T00:53:00,mfh,25.51
2022-06-11T00:54:00,mfh,26.34
2022-06-11T00:55:00,mfh,26.54
2022-06-11T00:56:00,mfh,26.43
2022-06-11T00:57:00,mfh,26.62
2022-06-11T00:58:00,mfh,26.01
2022-06-11T00:59:00,mfh,26.02
2022-06-11T01:00:00,mfh,25.97
2022-06-11T01:01:00,mfh,26.82
2022-06-11T01:02:00,mfh,26.52
2022-06-11T01:03:00,mfh,26.33
2022-06-11T01:04:00,mfh,26.38
2022-06-11T01:05:00,mfh,26.37
2022-06-11T01:06:00,mfh,25.58
2022-06-11T01:07:00,mfh,25.63
2022-06-11T01:08:00,mfh,25.67
2022-06-11T01:09:00,mfh,25.68
2022-06-11T01:10:00,mfh,25.54
2022-06-11T01:11:00,mfh,44.92
2022-06-11T01:12:00,mfh,47.06
2022-06-11T01:13:00,mfh,54.91
2022-06-11T01:14:00,mfh,55.50
2022-06-11T01:15:00,mfh,54.42
2022-06-11T01:16:00,mfh,54.18
2022-06-11T01:17:00,mfh,53.75
2022-06-11T01:18:00,mfh,53.59
2022-06-11T01:19:00,mfh,54.17
2022-06-11T01:20:00,mfh,54.09
2022-06-11T01:21:00,mfh,54.03
2022-06-11T01:22:00,mfh,53.90
2022-06-11T01:23:00,mfh,53.08
2022-06-11T01:24:00,mfh,52.80
2022-06-11T01:25:00,mfh,41.20
2022-06-11T01:26:00,mfh,40.77
2022-06-11T01:27:00,mfh,41.34
2022-06-11T01:28:00,mfh,41.37
2022-06-11T01:29:00,mfh,33.86
2022-06-11T01:30:00,mfh,34.26
2022-06-11T01:31:00,mfh,33.22
2022-06-11T01:32:00,mfh,33.20
2022-06-11T01:33:00,mfh,33.14
2022-06-11T01:34:00,mfh,33.09
2022-06-11T01:35:00,mfh,33.72
2022-06-11T01:36:00,mfh,33.70
2022-06-11T01:37:00,mfh,33.88
2022-06-11T01:38:00,mfh,34.01
2022-06-11T01:39:00,mfh,33.69
2022-06-11T01:40:00,mfh,33.40
2022-06-11T01:41:00,mfh,34.09
2022-06-11T01:42:00,mfh,33.60
2022-06-11T01:43:00,mfh,34.23
2022-06-11T01:44:00,mfh,34.27
2022-06-11T01:45:00,mfh,34.21
2022-06-11T01:46:00,mfh,34.46
2022-06-11T01:47:00,mfh,33.42
2022-06-11T01:48:00,mfh,33.40
2022-06-11T01:49:00,mfh,33.40
2022-06-11T01:50:00,mfh,33.32
2022-06-11T01:51:00,mfh,33.29
2022-06-11T01:52:00,mfh,33.89
2022-06-11T01:53:00,mfh,32.92
2022-06-11T01:54:00,mfh,33.02
2022-06-11T01:55:00,mfh,32.21
2022-06-11T01:56:00,mfh,32.20
2022-06-11T01:57:00,mfh,32.07
2022-06-11T01:58:00,mfh,32.06
2022-06-11T01:59:00,mfh,32.89
2022-06-11T02:00:00,mfh,32.90
2022-06-11T02:01:00,mfh,32.90
2022-06-11T02:02:00,mfh,33.02
2022-06-11T02:03:00,mfh,32.70
2022-06-11T02:04:00,mfh,32.26
2022-06-11T02:05:00,mfh,32.24
2022-06-11T02:06:00,mfh,32.65
2022-06-11T02:07:00,mfh,32.88
2022-06-11T02:08:00,mfh,33.61
2022-06-11T02:09:00,mfh,33.48
2022-06-11T02:10:00,mfh,33.63
2022-06-11T02:11:00,mfh,33.71
2022-06-11T02:12:00,mfh,32.18
2022-06-11T02:13:00,mfh,32.94
2022-06-11T02:14:00,mfh,32.15
2022-06-11T02:15:00,mfh,32.13
2022-06-11T02:16:00,mfh,32.73
2022-06-11T02:17:00,mfh,33.11
2022-06-11T02:18:00,mfh,32.80
2022-06-11T02:19:00,mfh,32.74
2022-06-11T02:20:00,mfh,32.05
2022-06-11T02:21:00,mfh,32.19
2022-06-11T02:22:00,mfh,32.35
2022-06-11T02:23:00,mfh,33.23
2022-06-11T02:24:00,mfh,25.73
2022-06-11T02:25:00,mfh,25.76
2022-06-11T02:26:00,mfh,25.73
2022-06-11T02:27:00,mfh,25.70
2022-06-11T02:28:00,mfh,25.02
2022-06-11T02:29:00,mfh,25.15
2022-06-11T02:30:00,mfh,24.86
2022-06-11T02:31:00,mfh,25.32
2022-06-11T02:32:00,mfh,25.37
2022-06-11T02:33:00,mfh,25.40
2022-06-11T02:34:00,mfh,25.51
2022-06-11T02:35:00,mfh,26.42
2022-06-11T02:36:00,mfh,25.59
2022-06-11T02:37:00,mfh,25.50
2022-06-11T02:38:00,mfh,24.82
2022-06-11T02:39:00,mfh,24.82
2022-06-11T02:40:00,mfh,24.97
2022-06-11T02:41:00,mfh,25.76
2022-06-11T02:42:00,mfh,25.96
2022-06-11T02:43:00,mfh,25.87
2022-06-11T02:44:00,mfh,25.75
2022-06-11T02:45:00,mfh,25.00
2022-06-11T02:46:00,mfh,25.00
2022-06-11T02:47:00,mfh,24.99
2022-06-11T02:48:00,mfh,25.00
2022-06-11T02:49:00,mfh,25.74
2022-06-11T02:50:00,mfh,25.53
2022-06-11T02:51:00,mfh,25.91
2022-06-11T02:52:00,mfh,25.78
2022-06-11T02:53:00,mfh,25.41
2022-06-11T02:54:00,mfh,24.71
2022-06-11T02:55:00,mfh,24.68
2022-06-11T02:56:00,mfh,24.70
2022-06-11T02:57:00,mfh,25.29
2022-06-11T02:58:00,mfh,25.79
2022-06-11T02:59:00,mfh,25.86
2022-06-11T03:00:00,mfh,25.46
2022-06-11T03:01:00,mfh,24.95
2022-06-11T03:02:00,mfh,24.82
2022-06-11T03:03:00,mfh,24.84
2022-06-11T03:04:00,mfh,24.84
2022-06-11T03:05:00,mfh,25.93
2022-06-11T03:06:00,mfh,25.88
2022-06-11T03:07:00,mfh,25.91
2022-06-11T03:08:00,mfh,25.83
2022-06-11T03:09:00,mfh,25.25
2022-06-11T03:10:00,mfh,25.21
2022-06-11T03:11:00,mfh,25.18
2022-06-11T03:12:00,mfh,25.28
2022-06-11T03:13:00,mfh,25.80
2022-06-11T03:14:00,mfh,25.61
2022-06-11T03:15:00,mfh,25.63
2022-06-11T03:16:00,mfh,25.66
2022-06-11T03:17:00,mfh,25.03
2022-06-11T03:18:00,mfh,24.91
2022-06-11T03:19:00,mfh,24.89
2022-06-11T03:20:00,mfh,24.92
2022-06-11T03:21:00,mfh,25.56
2022-06-11T03:22:00,mfh,25.49
2022-06-11T03:23:00,mfh,25.53
2022-06-11T03:24:00,mfh,25.62
2022-06-11T03:25:00,mfh,25.60
2022-06-11T03:26:00,mfh,25.53
2022-06-11T03:27:00,mfh,24.94
2022-06-11T03:28:00,mfh,25.14
2022-06-11T03:29:00,mfh,25.20
2022-06-11T03:30:00,mfh,25.90
2022-06-11T03:31:00,mfh,25.87
2022-06-11T03:32:00,mfh,25.80
2022-06-11T03:33:00,mfh,24.49
2022-06-11T03:34:00,mfh,23.38
2022-06-11T03:35:00,mfh,23.45
2022-06-11T03:36:00,mfh,23.27
2022-06-11T03:37:00,mfh,23.31
2022-06-11T03:38:00,mfh,23.11
2022-06-11T03:39:00,mfh,23.14
2022-06-11T03:40:00,mfh,24.26
2022-06-11T03:41:00,mfh,23.65
2022-06-11T03:42:00,mfh,22.53
2022-06-11T03:43:00,mfh,22.55
2022-06-11T03:44:00,mfh,22.55
2022-06-11T03:45:00,mfh,22.60
2022-06-11T03:46:00,mfh,23.24
2022-06-11T03:47:00,mfh,23.20
2022-06-11T03:48:00,mfh,23.22
2022-06-11T03:49:00,mfh,23.98
2022-06-11T03:50:00,mfh,22.89
2022-06-11T03:51:00,mfh,22.88
2022-06-11T03:52:00,mfh,22.97
2022-06-11T03:53:00,mfh,22.98
2022-06-11T03:54:00,mfh,22.98
2022-06-11T03:55:00,mfh,23.59
2022-06-11T03:56:00,mfh,23.52
2022-06-11T03:57:00,mfh,23.56
2022-06-11T03:58:00,mfh,23.33
2022-06-11T03:59:00,mfh,22.59
2022-06-11T04:00:00,mfh,23.25
2022-06-11T04:01:00,mfh,22.62
2022-06-11T04:02:00,mfh,22.61
2022-06-11T04:03:00,mfh,23.64
2022-06-11T04:04:00,mfh,23.36
2022-06-11T04:05:00,mfh,23.33
2022-06-11T04:06:00,mfh,23.31
2022-06-11T04:07:00,mfh,22.76
2022-06-11T04:08:00,mfh,22.59
2022-06-11T04:09:00,mfh,22.72
2022-06-11T04:10:00,mfh,22.64
2022-06-11T04:11:00,mfh,23.26
2022-06-11T04:12:00,mfh,23.51
2022-06-11T04:13:00,mfh,23.52
2022-06-11T04:14:00,mfh,23.53
2022-06-11T04:15:00,mfh,22.93
2022-06-11T04:16:00,mfh,22.91
2022-06-11T04:17:00,mfh,22.83
2022-06-11T04:18:00,mfh,22.74
2022-06-11T04:19:00,mfh,23.41
2022-06-11T04:20:00,mfh,23.11
2022-06-11T04:21:00,mfh,23.14
2022-06-11T04:22:00,mfh,23.16
2022-06-11T04:23:00,mfh,23.20
2022-06-11T04:24:00,mfh,23.22
2022-06-11T04:25:00,mfh,22.50
2022-06-11T04:26:00,mfh,11.84
2022-06-11T04:27:00,mfh,31.47
2022-06-11T04:28:00,mfh,34.56
2022-06-11T04:29:00,mfh,35.28
2022-06-11T04:30:00,mfh,35.52
2022-06-11T04:31:00,mfh,34.07
2022-06-11T04:32:00,mfh,33.97
2022-06-11T04:33:00,mfh,33.91
2022-06-11T04:34:00,mfh,35.41
2022-06-11T04:35:00,mfh,34.93
2022-06-11T04:36:00,mfh,35.46
2022-06-11T04:37:00,mfh,34.69
2022-06-11T04:38:00,mfh,34.50
2022-06-11T04:39:00,mfh,33.73
2022-06-11T04:40:00,mfh,33.62
2022-06-11T04:41:00,mfh,26.19
2022-06-11T04:42:00,mfh,19.67
2022-06-11T04:43:00,mfh,20.40
2022-06-11T04:44:00,mfh,20.37
2022-06-11T04:45:00,mfh,20.36
2022-06-11T04:46:00,mfh,12.61
2022-06-11T04:47:00,mfh,11.85
2022-06-11T04:48:00,mfh,12.17
2022-06-11T04:49:00,mfh,11.22
2022-06-11T04:50:00,mfh,11.20
2022-06-11T04:51:00,mfh,11.91
2022-06-11T04:52:00,mfh,11.95
2022-06-11T04:53:00,mfh,11.92
2022-06-11T04:54:00,mfh,11.96
2022-06-11T04:55:00,mfh,11.49
2022-06-11T04:56:00,mfh,11.77
2022-06-11T04:57:00,mfh,11.44
2022-06-11T04:58:00,mfh,12.27
2022-06-11T04:59:00,mfh,12.68
2022-06-11T05:00:00,mfh,12.86
2022-06-11T05:01:00,mfh,29.21
2022-06-11T05:02:00,mfh,29.53
2022-06-11T05:03:00,mfh,29.01
2022-06-11T05:04:00,mfh,27.90
2022-06-11T05:05:00,mfh,27.92
2022-06-11T05:06:00,mfh,27.92
2022-06-11T05:07:00,mfh,27.94
2022-06-11T05:08:00,mfh,28.54
2022-06-11T05:09:00,mfh,28.48
2022-06-11T05:10:00,mfh,28.44
2022-06-11T05:11:00,mfh,28.40
2022-06-11T05:12:00,mfh,27.83
2022-06-11T05:13:00,mfh,27.97
2022-06-11T05:14:00,mfh,27.97
2022-06-11T05:15:00,mfh,27.97
2022-06-11T05:16:00,mfh,27.92
2022-06-11T05:17:00,mfh,29.12
2022-06-11T05:18:00,mfh,28.86
2022-06-11T05:19:00,mfh,28.85
2022-06-11T05:20:00,mfh,28.92
2022-06-11T05:21:00,mfh,28.28
2022-06-11T05:22:00,mfh,28.24
2022-06-11T05:23:00,mfh,28.29
2022-06-11T05:24:00,mfh,28.17
2022-06-11T05:25:00,mfh,28.86
2022-06-11T05:26:00,mfh,28.63
2022-06-11T05:27:00,mfh,28.70
2022-06-11T05:28:00,mfh,28.69
2022-06-11T05:29:00,mfh,27.79
2022-06-11T05:30:00,mfh,27.76
2022-06-11T05:31:00,mfh,28.70
2022-06-11T05:32:00,mfh,27.70
2022-06-11T05:33:00,mfh,28.30
2022-06-11T05:34:00,mfh,28.51
2022-06-11T05:35:00,mfh,28.41
2022-06-11T05:36:00,mfh,28.30
2022-06-11T05:37:00,mfh,27.57
2022-06-11T05:38:00,mfh,27.75
2022-06-11T05:39:00,mfh,27.63
2022-06-11T05:40:00,mfh,27.88
2022-06-11T05:41:00,mfh,28.38
2022-06-11T05:42:00,mfh,28.44
2022-06-11T05:43:00,mfh,28.52
2022-06-11T05:44:00,mfh,28.40
2022-06-11T05:45:00,mfh,28.52
2022-06-11T05:46:00,mfh,27.78
2022-06-11T05:47:00,mfh,27.60
2022-06-11T05:48:00,mfh,28.02
2022-06-11T05:49:00,mfh,28.59
2022-06-11T05:50:00,mfh,29.33
2022-06-11T05:51:00,mfh,29.23
2022-06-11T05:52:00,mfh,29.74
2022-06-11T05:53:00,mfh,27.99
2022-06-11T05:54:00,mfh,28.02
2022-06-11T05:55:00,mfh,27.89
2022-06-11T05:56:00,mfh,28.04
2022-06-11T05:57:00,mfh,27.90
2022-06-11T05:58:00,mfh,28.65
2022-06-11T05:59:00,mfh,29.52
2022-06-11T06:00:00,mfh,28.82
2022-06-11T06:01:00,mfh,28.33
2022-06-11T06:02:00,mfh,28.41
2022-06-11T06:03:00,mfh,28.62
2022-06-11T06:04:00,mfh,28.41
2022-06-11T06:05:00,mfh,28.54
2022-06-11T06:06:00,mfh,28.93
2022-06-11T06:07:00,mfh,28.77
2022-06-11T06:08:00,mfh,29.36
2022-06-11T06:09:00,mfh,28.70
2022-06-11T06:10:00,mfh,28.36
2022-06-11T06:11:00,mfh,27.45
2022-06-11T06:12:00,mfh,27.38
2022-06-11T06:13:00,mfh,27.67
2022-06-11T06:14:00,mfh,27.92
2022-06-11T06:15:00,mfh,27.99
2022-06-11T06:16:00,mfh,28.11
2022-06-11T06:17:00,mfh,29.17
2022-06-11T06:18:00,mfh,27.38
2022-06-11T06:19:00,mfh,27.43
2022-06-11T06:20:00,mfh,28.10
2022-06-11T06:21:00,mfh,27.51
2022-06-11T06:22:00,mfh,28.03
2022-06-11T06:23:00,mfh,28.30
2022-06-11T06:24:00,mfh,28.90
2022-06-11T06:25:00,mfh,28.97
2022-06-11T06:26:00,mfh,28.34
2022-06-11T06:27:00,mfh,28.76
2022-06-11T06:28:00,mfh,28.47
2022-06-11T06:29:00,mfh,27.52
2022-06-11T06:30:00,mfh,28.12
2022-06-11T06:31:00,mfh,27.99
2022-06-11T06:32:00,mfh,28.03
2022-06-11T06:33:00,mfh,28.26
2022-06-11T06:34:00,mfh,27.51
2022-06-11T06:35:00,mfh,27.52
2022-06-11T06:36:00,mfh,27.52
2022-06-11T06:37:00,mfh,27.62
2022-06-11T06:38:00,mfh,28.66
2022-06-11T06:39:00,mfh,28.27
2022-06-11T06:40:00,mfh,28.41
2022-06-11T06:41:00,mfh,28.84
2022-06-11T06:42:00,mfh,28.54
2022-06-11T06:43:00,mfh,28.08
2022-06-11T06:44:00,mfh,27.58
2022-06-11T06:45:00,mfh,27.82
2022-06-11T06:46:00,mfh,27.66
2022-06-11T06:47:00,mfh,28.52
2022-06-11T06:48:00,mfh,29.05
2022-06-11T06:49:00,mfh,28.52
2022-06-11T06:50:00,mfh,28.55
2022-06-11T06:51:00,mfh,27.81
2022-06-11T06:52:00,mfh,27.46
2022-06-11T06:53:00,mfh,27.62
2022-06-11T06:54:00,mfh,27.55
2022-06-11T06:55:00,mfh,29.05
2022-06-11T06:56:00,mfh,28.14
2022-06-11T06:57:00,mfh,28.19
2022-06-11T06:58:00,mfh,28.66
2022-06-11T06:59:00,mfh,27.95
2022-06-11T07:00:00,mfh,28.06
2022-06-11T07:01:00,mfh,28.01
2022-06-11T07:02:00,mfh,28.02
2022-06-11T07:03:00,mfh,28.65
2022-06-11T07:04:00,mfh,29.21
2022-06-11T07:05:00,mfh,28.74
2022-06-11T07:06:00,mfh,29.06
2022-06-11T07:07:00,mfh,28.98
2022-06-11T07:08:00,mfh,27.81
2022-06-11T07:09:00,mfh,27.76
2022-06-11T07:10:00,mfh,27.71
2022-06-11T07:11:00,mfh,28.27
2022-06-11T07:12:00,mfh,28.22
2022-06-11T07:13:00,mfh,28.26
2022-06-11T07:14:00,mfh,28.08
2022-06-11T07:15:00,mfh,28.06
2022-06-11T07:16:00,mfh,27.30
2022-06-11T07:17:00,mfh,27.20
2022-06-11T07:18:00,mfh,27.22
2022-06-11T07:19:00,mfh,27.67
2022-06-11T07:20:00,mfh,27.94
2022-06-11T07:21:00,mfh,27.99
2022-06-11T07:22:00,mfh,27.93
2022-06-11T07:23:00,mfh,28.00
2022-06-11T07:24:00,mfh,28.07
2022-06-11T07:25:00,mfh,27.34
2022-06-11T07:26:00,mfh,27.39
2022-06-11T07:27:00,mfh,27.36
2022-06-11T07:28:00,mfh,28.91
2022-06-11T07:29:00,mfh,28.28
2022-06-11T07:30:00,mfh,28.28
2022-06-11T07:31:00,mfh,28.11
2022-06-11T07:32:00,mfh,27.70
2022-06-11T07:33:00,mfh,27.91
2022-06-11T07:34:00,mfh,28.23
2022-06-11T07:35:00,mfh,28.17
2022-06-11T07:36:00,mfh,27.80
2022-06-11T07:37:00,mfh,28.59
2022-06-11T07:38:00,mfh,28.26
2022-06-11T07:39:00,mfh,28.39
2022-06-11T07:40:00,mfh,27.17
2022-06-11T07:41:00,mfh,27.08
2022-06-11T07:42:00,mfh,27.56
2022-06-11T07:43:00,mfh,27.18
2022-06-11T07:44:00,mfh,27.89
2022-06-11T07:45:00,mfh,27.84
2022-06-11T07:46:00,mfh,27.92
2022-06-11T07:47:00,mfh,27.92
2022-06-11T07:48:00,mfh,27.16
2022-06-11T07:49:00,mfh,27.23
2022-06-11T07:50:00,mfh,27.46
2022-06-11T07:51:00,mfh,27.43
2022-06-11T07:52:00,mfh,28.03
2022-06-11T07:53:00,mfh,28.70
2022-06-11T07:54:00,mfh,28.77
2022-06-11T07:55:00,mfh,28.80
2022-06-11T07:56:00,mfh,28.14
2022-06-11T07:57:00,mfh,28.77
2022-06-11T07:58:00,mfh,27.25
2022-06-11T07:59:00,mfh,27.19
2022-06-11T08:00:00,mfh,27.25
2022-06-11T08:01:00,mfh,27.76
2022-06-11T08:02:00,mfh,27.77
2022-06-11T08:03:00,mfh,27.79
2022-06-11T08:04:00,mfh,27.16
2022-06-11T08:05:00,mfh,27.22
2022-06-11T08:06:00,mfh,27.38
2022-06-11T08:07:00,mfh,27.18
2022-06-11T08:08:00,mfh,27.18
2022-06-11T08:09:00,mfh,27.81
2022-06-11T08:10:00,mfh,27.88
2022-06-11T08:11:00,mfh,27.93
2022-06-11T08:12:00,mfh,27.50
2022-06-11T08:13:00,mfh,27.56
2022-06-11T08:14:00,mfh,27.56
2022-06-11T08:15:00,mfh,27.64
2022-06-11T08:16:00,mfh,27.63
2022-06-11T08:17:00,mfh,28.60
2022-06-11T08:18:00,mfh,28.14
2022-06-11T08:19:00,mfh,29.00
2022-06-11T08:20:00,mfh,28.72
2022-06-11T08:21:00,mfh,27.37
2022-06-11T08:22:00,mfh,27.28
2022-06-11T08:23:00,mfh,27.28
2022-06-11T08:24:00,mfh,27.39
2022-06-11T08:25:00,mfh,28.14
2022-06-11T08:26:00,mfh,28.04
2022-06-11T08:27:00,mfh,28.08
2022-06-11T08:28:00,mfh,28.65
2022-06-11T08:29:00,mfh,27.44
2022-06-11T08:30:00,mfh,27.77
2022-06-11T08:31:00,mfh,27.38
2022-06-11T08:32:00,mfh,27.41
2022-06-11T08:33:00,mfh,27.92
2022-06-11T08:34:00,mfh,28.23
2022-06-11T08:35:00,mfh,28.20
2022-06-11T08:36:00,mfh,28.15
2022-06-11T08:37:00,mfh,27.56
2022-06-11T08:38:00,mfh,27.32
2022-06-11T08:39:00,mfh,27.68
2022-06-11T08:40:00,mfh,27.89
2022-06-11T08:41:00,mfh,28.04
2022-06-11T08:42:00,mfh,27.78
2022-06-11T08:43:00,mfh,27.96
2022-06-11T08:44:00,mfh,28.03
2022-06-11T08:45:00,mfh,27.18
2022-06-11T08:46:00,mfh,27.19
2022-06-11T08:47:00,mfh,27.19
2022-06-11T08:48:00,mfh,27.24
2022-06-11T08:49:00,mfh,27.99
2022-06-11T08:50:00,mfh,28.11
2022-06-11T08:51:00,mfh,27.82
2022-06-11T08:52:00,mfh,27.85
2022-06-11T08:53:00,mfh,28.01
2022-06-11T08:54:00,mfh,27.31
2022-06-11T08:55:00,mfh,27.21
2022-06-11T08:56:00,mfh,27.97
2022-06-11T08:57:00,mfh,27.43
2022-06-11T08:58:00,mfh,28.18
2022-06-11T08:59:00,mfh,28.21
2022-06-11T09:00:00,mfh,28.25
2022-06-11T09:01:00,mfh,28.24
2022-06-11T09:02:00,mfh,27.55
2022-06-11T09:03:00,mfh,28.41
2022-06-11T09:04:00,mfh,27.53
2022-06-11T09:05:00,mfh,27.32
2022-06-11T09:06:00,mfh,27.89
2022-06-11T09:07:00,mfh,27.88
2022-06-11T09:08:00,mfh,28.09
2022-06-11T09:09:00,mfh,27.89
2022-06-11T09:10:00,mfh,27.20
2022-06-11T09:11:00,mfh,27.77
2022-06-11T09:12:00,mfh,27.74
2022-06-11T09:13:00,mfh,27.78
2022-06-11T09:14:00,mfh,28.32
2022-06-11T09:15:00,mfh,28.43
2022-06-11T09:16:00,mfh,36.81
2022-06-11T09:17:00,mfh,38.54
2022-06-11T09:18:00,mfh,38.09
2022-06-11T09:19:00,mfh,38.23
2022-06-11T09:20:00,mfh,37.99
2022-06-11T09:21:00,mfh,37.87
2022-06-11T09:22:00,mfh,38.42
2022-06-11T09:23:00,mfh,38.31
2022-06-11T09:24:00,mfh,39.04
2022-06-11T09:25:00,mfh,39.04
2022-06-11T09:26:00,mfh,39.93
2022-06-11T09:27:00,mfh,39.05
2022-06-11T09:28:00,mfh,38.43
2022-06-11T09:29:00,mfh,38.18
2022-06-11T09:30:00,mfh,37.61
2022-06-11T09:31:00,mfh,38.37
2022-06-11T09:32:00,mfh,38.30
2022-06-11T09:33:00,mfh,38.99
2022-06-11T09:34:00,mfh,38.33
2022-06-11T09:35:00,mfh,37.56
2022-06-11T09:36:00,mfh,37.55
2022-06-11T09:37:00,mfh,38.09
2022-06-11T09:38:00,mfh,38.02
2022-06-11T09:39:00,mfh,38.82
2022-06-11T09:40:00,mfh,38.24
2022-06-11T09:41:00,mfh,38.44
2022-06-11T09:42:00,mfh,38.38
2022-06-11T09:43:00,mfh,37.73
2022-06-11T09:44:00,mfh,37.64
2022-06-11T09:45:00,mfh,37.99
2022-06-11T09:46:00,mfh,37.78
2022-06-11T09:47:00,mfh,39.01
2022-06-11T09:48:00,mfh,38.68
2022-06-11T09:49:00,mfh,38.92
2022-06-11T09:50:00,mfh,38.91
2022-06-11T09:51:00,mfh,37.63
2022-06-11T09:52:00,mfh,37.62
2022-06-11T09:53:00,mfh,37.61
2022-06-11T09:54:00,mfh,37.54
2022-06-11T09:55:00,mfh,38.25
2022-06-11T09:56:00,mfh,38.34
2022-06-11T09:57:00,mfh,39.21
2022-06-11T09:58:00,mfh,39.83
2022-06-11T09:59:00,mfh,39.53
2022-06-11T10:00:00,mfh,39.18
2022-06-11T10:01:00,mfh,39.23
2022-06-11T10:02:00,mfh,39.29
2022-06-11T10:03:00,mfh,40.05
2022-06-11T10:04:00,mfh,40.19
2022-06-11T10:05:00,mfh,38.42
2022-06-11T10:06:00,mfh,38.72
2022-06-11T10:07:00,mfh,38.04
2022-06-11T10:08:00,mfh,38.27
2022-06-11T10:09:00,mfh,38.58
2022-06-11T10:10:00,mfh,38.69
2022-06-11T10:11:00,mfh,39.24
2022-06-11T10:12:00,mfh,39.13
2022-06-11T10:13:00,mfh,38.98
2022-06-11T10:14:00,mfh,39.02
2022-06-11T10:15:00,mfh,38.47
2022-06-11T10:16:00,mfh,38.41
2022-06-11T10:17:00,mfh,38.28
2022-06-11T10:18:00,mfh,38.18
2022-06-11T10:19:00,mfh,38.26
2022-06-11T10:20:00,mfh,38.98
2022-06-11T10:21:00,mfh,39.05
2022-06-11T10:22:00,mfh,39.01
2022-06-11T10:23:00,mfh,39.02
2022-06-11T10:24:00,mfh,38.33
2022-06-11T10:25:00,mfh,38.34
2022-06-11T10:26:00,mfh,38.47
2022-06-11T10:27:00,mfh,38.77
2022-06-11T10:28:00,mfh,39.43
2022-06-11T10:29:00,mfh,39.49
2022-06-11T10:30:00,mfh,39.28
2022-06-11T10:31:00,mfh,39.12
2022-06-11T10:32:00,mfh,38.54
2022-06-11T10:33:00,mfh,38.57
2022-06-11T10:34:00,mfh,38.59
2022-06-11T10:35:00,mfh,38.56
2022-06-11T10:36:00,mfh,39.38
2022-06-11T10:37:00,mfh,39.02
2022-06-11T10:38:00,mfh,38.86
2022-06-11T10:39:00,mfh,38.83
2022-06-11T10:40:00,mfh,38.98
2022-06-11T10:41:00,mfh,38.58
2022-06-11T10:42:00,mfh,38.13
2022-06-11T10:43:00,mfh,38.16
2022-06-11T10:44:00,mfh,38.04
2022-06-11T10:45:00,mfh,38.71
2022-06-11T10:46:00,mfh,38.69
2022-06-11T10:47:00,mfh,38.73
2022-06-11T10:48:00,mfh,38.64
2022-06-11T10:49:00,mfh,38.20
2022-06-11T10:50:00,mfh,45.93
2022-06-11T10:51:00,mfh,46.82
2022-06-11T10:52:00,mfh,47.09
2022-06-11T10:53:00,mfh,47.55
2022-06-11T10:54:00,mfh,47.42
2022-06-11T10:55:00,mfh,47.76
2022-06-11T10:56:00,mfh,47.82
2022-06-11T10:57:00,mfh,47.13
2022-06-11T10:58:00,mfh,39.70
2022-06-11T10:59:00,mfh,39.73
2022-06-11T11:00:00,mfh,39.68
2022-06-11T11:01:00,mfh,40.32
2022-06-11T11:02:00,mfh,39.60
2022-06-11T11:03:00,mfh,39.54
2022-06-11T11:04:00,mfh,40.37
2022-06-11T11:05:00,mfh,38.90
2022-06-11T11:06:00,mfh,38.26
2022-06-11T11:07:00,mfh,37.91
2022-06-11T11:08:00,mfh,37.83
2022-06-11T11:09:00,mfh,38.30
2022-06-11T11:10:00,mfh,38.35
2022-06-11T11:11:00,mfh,38.61
2022-06-11T11:12:00,mfh,38.72
2022-06-11T11:13:00,mfh,37.79
2022-06-11T11:14:00,mfh,37.86
2022-06-11T11:15:00,mfh,38.02
2022-06-11T11:16:00,mfh,37.94
2022-06-11T11:17:00,mfh,38.79
2022-06-11T11:18:00,mfh,38.48
2022-06-11T11:19:00,mfh,38.54
2022-06-11T11:20:00,mfh,38.34
2022-06-11T11:21:00,mfh,37.67
2022-06-11T11:22:00,mfh,37.60
2022-06-11T11:23:00,mfh,37.56
2022-06-11T11:24:00,mfh,37.68
2022-06-11T11:25:00,mfh,37.62
2022-06-11T11:26:00,mfh,38.28
2022-06-11T11:27:00,mfh,39.15
2022-06-11T11:28:00,mfh,39.40
2022-06-11T11:29:00,mfh,38.34
2022-06-11T11:30:00,mfh,38.27
2022-06-11T11:31:00,mfh,37.91
2022-06-11T11:32:00,mfh,37.97
2022-06-11T11:33:00,mfh,37.87
2022-06-11T11:34:00,mfh,38.58
2022-06-11T11:35:00,mfh,38.73
2022-06-11T11:36:00,mfh,39.04
2022-06-11T11:37:00,mfh,38.66
2022-06-11T11:38:00,mfh,38.00
2022-06-11T11:39:00,mfh,38.14
2022-06-11T11:40:00,mfh,38.05
2022-06-11T11:41:00,mfh,38.04
2022-06-11T11:42:00,mfh,38.50
2022-06-11T11:43:00,mfh,38.51
2022-06-11T11:44:00,mfh,38.35
2022-06-11T11:45:00,mfh,39.12
2022-06-11T11:46:00,mfh,38.61
2022-06-11T11:47:00,mfh,37.85
2022-06-11T11:48:00,mfh,37.85
2022-06-11T11:49:00,mfh,38.16
2022-06-11T11:50:00,mfh,38.86
2022-06-11T11:51:00,mfh,38.83
2022-06-11T11:52:00,mfh,38.80
2022-06-11T11:53:00,mfh,38.81
2022-06-11T11:54:00,mfh,38.60
2022-06-11T11:55:00,mfh,39.32
2022-06-11T11:56:00,mfh,38.54
2022-06-11T11:57:00,mfh,39.06
2022-06-11T11:58:00,mfh,39.14
2022-06-11T11:59:00,mfh,39.22
2022-06-11T12:00:00,mfh,39.27
2022-06-11T12:01:00,mfh,39.28
2022-06-11T12:02:00,mfh,39.87
2022-06-11T12:03:00,mfh,38.49
2022-06-11T12:04:00,mfh,38.84
2022-06-11T12:05:00,mfh,38.98
2022-06-11T12:06:00,mfh,38.60
2022-06-11T12:07:00,mfh,39.38
2022-06-11T12:08:00,mfh,39.33
2022-06-11T12:09:00,mfh,38.73
2022-06-11T12:10:00,mfh,38.81
2022-06-11T12:11:00,mfh,38.35
2022-06-11T12:12:00,mfh,38.19
2022-06-11T12:13:00,mfh,38.26
2022-06-11T12:14:00,mfh,38.58
2022-06-11T12:15:00,mfh,39.20
2022-06-11T12:16:00,mfh,38.64
2022-06-11T12:17:00,mfh,38.80
2022-06-11T12:18:00,mfh,38.87
2022-06-11T12:19:00,mfh,38.09
2022-06-11T12:20:00,mfh,38.23
2022-06-11T12:21:00,mfh,38.28
2022-06-11T12:22:00,mfh,38.34
2022-06-11T12:23:00,mfh,38.98
2022-06-11T12:24:00,mfh,39.07
2022-06-11T12:25:00,mfh,39.11
2022-06-11T12:26:00,mfh,39.08
2022-06-11T12:27:00,mfh,38.30
2022-06-11T12:28:00,mfh,38.66
2022-06-11T12:29:00,mfh,38.33
2022-06-11T12:30:00,mfh,38.42
2022-06-11T12:31:00,mfh,39.00
2022-06-11T12:32:00,mfh,39.66
2022-06-11T12:33:00,mfh,39.98
2022-06-11T12:34:00,mfh,39.52
2022-06-11T12:35:00,mfh,38.84
2022-06-11T12:36:00,mfh,39.14
2022-06-11T12:37:00,mfh,37.92
2022-06-11T12:38:00,mfh,38.52
2022-06-11T12:39:00,mfh,38.24
2022-06-11T12:40:00,mfh,39.91
2022-06-11T12:41:00,mfh,39.70
2022-06-11T12:42:00,mfh,39.88
2022-06-11T12:43:00,mfh,39.99
2022-06-11T12:44:00,mfh,39.18
2022-06-11T12:45:00,mfh,39.18
2022-06-11T12:46:00,mfh,38.66
2022-06-11T12:47:00,mfh,38.72
2022-06-11T12:48:00,mfh,39.24
2022-06-11T12:49:00,mfh,39.59
2022-06-11T12:50:00,mfh,39.39
2022-06-11T12:51:00,mfh,39.43
2022-06-11T12:52:00,mfh,39.18
2022-06-11T12:53:00,mfh,38.90
2022-06-11T12:54:00,mfh,38.45
2022-06-11T12:55:00,mfh,38.47
2022-06-11T12:56:00,mfh,40.22
2022-06-11T12:57:00,mfh,39.22
2022-06-11T12:58:00,mfh,39.21
2022-06-11T12:59:00,mfh,39.28
2022-06-11T13:00:00,mfh,38.56
2022-06-11T13:01:00,mfh,39.07
2022-06-11T13:02:00,mfh,38.60
2022-06-11T13:03:00,mfh,38.60
2022-06-11T13:04:00,mfh,39.59
2022-06-11T13:05:00,mfh,39.49
2022-06-11T13:06:00,mfh,40.70
2022-06-11T13:07:00,mfh,39.72
2022-06-11T13:08:00,mfh,39.04
2022-06-11T13:09:00,mfh,38.94
2022-06-11T13:10:00,mfh,38.98
2022-06-11T13:11:00,mfh,39.22
2022-06-11T13:12:00,mfh,39.62
2022-06-11T13:13:00,mfh,39.55
2022-06-11T13:14:00,mfh,39.55
2022-06-11T13:15:00,mfh,39.40
2022-06-11T13:16:00,mfh,39.73
2022-06-11T13:17:00,mfh,39.30
2022-06-11T13:18:00,mfh,38.59